iso_date,Year,Hour,Min,DOY,POS_DOY,Lat,Lon,BP,Ts,Ta,has_bp,has_ts,has_ta,BuoyID,Buoy_Type,Buoy_Owner,Logistics,Hemisphere
2021-10-05T16:59:57Z,2021,17,0,278.7083,278.7083,61.541,-8.831,1012.6,11.5,-999.0,yes,yes,no,300234067975310,BD2GI,AOML,SKAGAFOSS,North
2021-10-05T18:00:00Z,2021,18,0,278.75,278.75,61.537,-8.823,1013.0,11.5,-999.0,yes,yes,no,300234067975310,BD2GI,AOML,SKAGAFOSS,North
2021-10-05T19:00:02Z,2021,19,0,278.7917,278.7917,61.534,-8.816,1013.6,11.5,-999.0,yes,yes,no,300234067975310,BD2GI,AOML,SKAGAFOSS,North
2021-10-05T19:59:57Z,2021,20,0,278.8333,278.8333,61.531,-8.813,1013.8,11.5,-999.0,yes,yes,no,300234067975310,BD2GI,AOML,SKAGAFOSS,North
2021-10-05T21:00:00Z,2021,21,0,278.875,278.875,61.527,-8.813,1014.0,11.51,-999.0,yes,yes,no,300234067975310,BD2GI,AOML,SKAGAFOSS,North
2021-10-05T22:00:02Z,2021,22,0,278.9167,278.9167,61.524,-8.813,1014.5,11.5,-999.0,yes,yes,no,300234067975310,BD2GI,AOML,SKAGAFOSS,North
2021-10-05T22:59:57Z,2021,23,0,278.9583,278.9583,61.52,-8.815,1014.7,11.51,-999.0,yes,yes,no,300234067975310,BD2GI,AOML,SKAGAFOSS,North
2021-10-06T00:00:00Z,2021,0,0,279.0,279.0,61.517,-8.82,1015.1,11.51,-999.0,yes,yes,no,300234067975310,BD2GI,AOML,SKAGAFOSS,North
2021-10-06T01:00:02Z,2021,1,0,279.0417,279.0417,61.514,-8.82,1015.0,11.5,-999.0,yes,yes,no,300234067975310,BD2GI,AOML,SKAGAFOSS,North
2021-10-06T01:59:57Z,2021,2,0,279.0833,279.0833,61.51,-8.816,1015.1,11.5,-999.0,yes,yes,no,300234067975310,BD2GI,AOML,SKAGAFOSS,North
2021-10-06T03:00:00Z,2021,3,0,279.125,279.125,61.508,-8.815,1015.0,11.5,-999.0,yes,yes,no,300234067975310,BD2GI,AOML,SKAGAFOSS,North
2021-10-06T04:00:02Z,2021,4,0,279.1667,279.1667,61.507,-8.812,1015.0,11.49,-999.0,yes,yes,no,300234067975310,BD2GI,AOML,SKAGAFOSS,North
2021-10-06T04:59:57Z,2021,5,0,279.2083,279.2083,61.508,-8.806,1015.3,11.47,-999.0,yes,yes,no,300234067975310,BD2GI,AOML,SKAGAFOSS,North
2021-10-06T06:00:00Z,2021,6,0,279.25,279.25,61.508,-8.796,1015.3,11.44,-999.0,yes,yes,no,300234067975310,BD2GI,AOML,SKAGAFOSS,North
2021-10-06T07:00:02Z,2021,7,0,279.2917,279.2917,61.509,-8.784,1015.6,11.44,-999.0,yes,yes,no,300234067975310,BD2GI,AOML,SKAGAFOSS,North
2021-10-06T07:59:57Z,2021,8,0,279.3333,279.3333,61.508,-8.772,1015.5,11.48,-999.0,yes,yes,no,300234067975310,BD2GI,AOML,SKAGAFOSS,North
2021-10-06T09:00:00Z,2021,9,0,279.375,279.375,61.504,-8.763,1015.7,11.51,-999.0,yes,yes,no,300234067975310,BD2GI,AOML,SKAGAFOSS,North
2021-10-06T10:00:02Z,2021,10,0,279.4167,279.4167,61.5,-8.759,1015.8,11.52,-999.0,yes,yes,no,300234067975310,BD2GI,AOML,SKAGAFOSS,North
2021-10-06T10:59:57Z,2021,11,0,279.4583,279.4583,61.494,-8.759,1015.9,11.53,-999.0,yes,yes,no,300234067975310,BD2GI,AOML,SKAGAFOSS,North
2021-10-06T12:00:00Z,2021,12,0,279.5,279.5,61.487,-8.767,1015.9,11.54,-999.0,yes,yes,no,300234067975310,BD2GI,AOML,SKAGAFOSS,North
2021-10-06T13:00:02Z,2021,13,0,279.5417,279.5417,61.481,-8.778,1015.9,11.56,-999.0,yes,yes,no,300234067975310,BD2GI,AOML,SKAGAFOSS,North
2021-10-06T13:59:57Z,2021,14,0,279.5833,279.5833,61.478,-8.793,1015.8,11.56,-999.0,yes,yes,no,300234067975310,BD2GI,AOML,SKAGAFOSS,North
2021-10-06T15:00:00Z,2021,15,0,279.625,279.625,61.48,-8.805,1015.0,11.55,-999.0,yes,yes,no,300234067975310,BD2GI,AOML,SKAGAFOSS,North
2021-10-06T16:00:02Z,2021,16,0,279.6667,279.6667,61.486,-8.805,1014.4,11.54,-999.0,yes,yes,no,300234067975310,BD2GI,AOML,SKAGAFOSS,North
2021-10-06T16:59:57Z,2021,17,0,279.7083,279.7083,61.492,-8.801,1013.8,11.54,-999.0,yes,yes,no,300234067975310,BD2GI,AOML,SKAGAFOSS,North
2021-10-06T18:00:00Z,2021,18,0,279.75,279.75,61.499,-8.788,1013.3,11.52,-999.0,yes,yes,no,300234067975310,BD2GI,AOML,SKAGAFOSS,North
2021-10-06T19:00:02Z,2021,19,0,279.7917,279.7917,61.505,-8.772,1013.0,11.51,-999.0,yes,yes,no,300234067975310,BD2GI,AOML,SKAGAFOSS,North
2021-10-06T19:59:57Z,2021,20,0,279.8333,279.8333,61.509,-8.752,1012.9,11.5,-999.0,yes,yes,no,300234067975310,BD2GI,AOML,SKAGAFOSS,North
2021-10-06T21:00:00Z,2021,21,0,279.875,279.875,61.511,-8.734,1012.1,11.48,-999.0,yes,yes,no,300234067975310,BD2GI,AOML,SKAGAFOSS,North
2021-10-06T22:00:02Z,2021,22,0,279.9167,279.9167,61.508,-8.719,1011.3,11.47,-999.0,yes,yes,no,300234067975310,BD2GI,AOML,SKAGAFOSS,North
2021-10-06T22:59:57Z,2021,23,0,279.9583,279.9583,61.504,-8.712,1010.6,11.47,-999.0,yes,yes,no,300234067975310,BD2GI,AOML,SKAGAFOSS,North
2021-10-07T00:00:00Z,2021,0,0,280.0,280.0,61.498,-8.713,1009.9,11.47,-999.0,yes,yes,no,300234067975310,BD2GI,AOML,SKAGAFOSS,North
2021-10-07T01:00:02Z,2021,1,0,280.0417,280.0417,61.492,-8.725,1008.9,11.46,-999.0,yes,yes,no,300234067975310,BD2GI,AOML,SKAGAFOSS,North
2021-10-07T01:59:57Z,2021,2,0,280.0833,280.0833,61.489,-8.744,1007.9,11.46,-999.0,yes,yes,no,300234067975310,BD2GI,AOML,SKAGAFOSS,North
2021-10-07T03:00:00Z,2021,3,0,280.125,280.125,61.492,-8.763,1007.1,11.45,-999.0,yes,yes,no,300234067975310,BD2GI,AOML,SKAGAFOSS,North
2021-10-07T04:00:02Z,2021,4,0,280.1667,280.1667,61.498,-8.773,1005.8,11.45,-999.0,yes,yes,no,300234067975310,BD2GI,AOML,SKAGAFOSS,North
2021-10-07T04:59:57Z,2021,5,0,280.2083,280.2083,61.509,-8.777,1004.7,11.43,-999.0,yes,yes,no,300234067975310,BD2GI,AOML,SKAGAFOSS,North
2021-10-07T06:00:00Z,2021,6,0,280.25,280.25,61.518,-8.774,1003.4,11.43,-999.0,yes,yes,no,300234067975310,BD2GI,AOML,SKAGAFOSS,North
2021-10-07T07:00:02Z,2021,7,0,280.2917,280.2917,61.528,-8.766,1002.8,11.43,-999.0,yes,yes,no,300234067975310,BD2GI,AOML,SKAGAFOSS,North
2021-10-07T07:59:57Z,2021,8,0,280.3333,280.3333,61.538,-8.75,1001.6,11.43,-999.0,yes,yes,no,300234067975310,BD2GI,AOML,SKAGAFOSS,North
2021-10-07T09:00:00Z,2021,9,0,280.375,280.375,61.544,-8.728,1002.0,11.43,-999.0,yes,yes,no,300234067975310,BD2GI,AOML,SKAGAFOSS,North
2021-10-07T10:00:02Z,2021,10,0,280.4167,280.4167,61.546,-8.702,1002.0,11.43,-999.0,yes,yes,no,300234067975310,BD2GI,AOML,SKAGAFOSS,North
2021-10-07T10:59:57Z,2021,11,0,280.4583,280.4583,61.543,-8.681,1002.4,11.43,-999.0,yes,yes,no,300234067975310,BD2GI,AOML,SKAGAFOSS,North
2021-10-07T12:00:00Z,2021,12,0,280.5,280.5,61.537,-8.667,1003.2,11.43,-999.0,yes,yes,no,300234067975310,BD2GI,AOML,SKAGAFOSS,North
2021-10-07T13:00:02Z,2021,13,0,280.5417,280.5417,61.531,-8.662,1003.7,11.43,-999.0,yes,yes,no,300234067975310,BD2GI,AOML,SKAGAFOSS,North
2021-10-07T13:59:57Z,2021,14,0,280.5833,280.5833,61.524,-8.659,1003.2,11.43,-999.0,yes,yes,no,300234067975310,BD2GI,AOML,SKAGAFOSS,North
2021-10-07T15:00:00Z,2021,15,0,280.625,280.625,61.516,-8.66,1003.2,11.43,-999.0,yes,yes,no,300234067975310,BD2GI,AOML,SKAGAFOSS,North
2021-10-07T16:00:02Z,2021,16,0,280.6667,280.6667,61.509,-8.666,1003.1,11.43,-999.0,yes,yes,no,300234067975310,BD2GI,AOML,SKAGAFOSS,North
2021-10-07T16:59:57Z,2021,17,0,280.7083,280.7083,61.508,-8.668,1003.5,11.43,-999.0,yes,yes,no,300234067975310,BD2GI,AOML,SKAGAFOSS,North
2021-10-07T18:00:00Z,2021,18,0,280.75,280.75,61.512,-8.66,1003.8,11.43,-999.0,yes,yes,no,300234067975310,BD2GI,AOML,SKAGAFOSS,North
2021-10-07T19:00:02Z,2021,19,0,280.7917,280.7917,61.519,-8.645,1004.4,11.43,-999.0,yes,yes,no,300234067975310,BD2GI,AOML,SKAGAFOSS,North
2021-10-07T19:59:57Z,2021,20,0,280.8333,280.8333,61.525,-8.625,1005.0,11.43,-999.0,yes,yes,no,300234067975310,BD2GI,AOML,SKAGAFOSS,North
2021-10-07T21:00:00Z,2021,21,0,280.875,280.875,61.531,-8.599,1006.1,11.44,-999.0,yes,yes,no,300234067975310,BD2GI,AOML,SKAGAFOSS,North
2021-10-07T22:00:02Z,2021,22,0,280.9167,280.9167,61.533,-8.571,1007.4,11.43,-999.0,yes,yes,no,300234067975310,BD2GI,AOML,SKAGAFOSS,North
2021-10-07T22:59:57Z,2021,23,0,280.9583,280.9583,61.532,-8.541,1008.7,11.44,-999.0,yes,yes,no,300234067975310,BD2GI,AOML,SKAGAFOSS,North
2021-10-08T00:00:00Z,2021,0,0,281.0,281.0,61.525,-8.51,1010.0,11.44,-999.0,yes,yes,no,300234067975310,BD2GI,AOML,SKAGAFOSS,North
2021-10-08T01:00:02Z,2021,1,0,281.0417,281.0417,61.515,-8.489,1011.4,11.44,-999.0,yes,yes,no,300234067975310,BD2GI,AOML,SKAGAFOSS,North
2021-10-08T01:59:57Z,2021,2,0,281.0833,281.0833,61.503,-8.474,1012.4,11.44,-999.0,yes,yes,no,300234067975310,BD2GI,AOML,SKAGAFOSS,North
2021-10-08T03:00:00Z,2021,3,0,281.125,281.125,61.491,-8.465,1013.2,11.43,-999.0,yes,yes,no,300234067975310,BD2GI,AOML,SKAGAFOSS,North
2021-10-08T04:00:02Z,2021,4,0,281.1667,281.1667,61.481,-8.462,1013.7,11.43,-999.0,yes,yes,no,300234067975310,BD2GI,AOML,SKAGAFOSS,North
2021-10-08T04:59:57Z,2021,5,0,281.2083,281.2083,61.475,-8.462,1014.5,11.43,-999.0,yes,yes,no,300234067975310,BD2GI,AOML,SKAGAFOSS,North
2021-10-08T06:00:00Z,2021,6,0,281.25,281.25,61.474,-8.466,1015.4,11.43,-999.0,yes,yes,no,300234067975310,BD2GI,AOML,SKAGAFOSS,North
2021-10-08T07:00:02Z,2021,7,0,281.2917,281.2917,61.477,-8.468,1016.2,11.43,-999.0,yes,yes,no,300234067975310,BD2GI,AOML,SKAGAFOSS,North
2021-10-08T07:59:57Z,2021,8,0,281.3333,281.3333,61.486,-8.467,1016.9,11.44,-999.0,yes,yes,no,300234067975310,BD2GI,AOML,SKAGAFOSS,North
2021-10-08T09:00:00Z,2021,9,0,281.375,281.375,61.495,-8.455,1017.5,11.44,-999.0,yes,yes,no,300234067975310,BD2GI,AOML,SKAGAFOSS,North
2021-10-08T10:00:02Z,2021,10,0,281.4167,281.4167,61.504,-8.435,1018.2,11.44,-999.0,yes,yes,no,300234067975310,BD2GI,AOML,SKAGAFOSS,North
2021-10-08T10:59:57Z,2021,11,0,281.4583,281.4583,61.508,-8.41,1018.7,11.46,-999.0,yes,yes,no,300234067975310,BD2GI,AOML,SKAGAFOSS,North
2021-10-08T12:00:00Z,2021,12,0,281.5,281.5,61.508,-8.383,1018.8,11.47,-999.0,yes,yes,no,300234067975310,BD2GI,AOML,SKAGAFOSS,North
2021-10-08T13:00:02Z,2021,13,0,281.5417,281.5417,61.502,-8.359,1019.3,11.47,-999.0,yes,yes,no,300234067975310,BD2GI,AOML,SKAGAFOSS,North
2021-10-08T13:59:57Z,2021,14,0,281.5833,281.5833,61.493,-8.341,1019.5,11.47,-999.0,yes,yes,no,300234067975310,BD2GI,AOML,SKAGAFOSS,North
2021-10-08T15:00:00Z,2021,15,0,281.625,281.625,61.482,-8.33,1019.4,11.47,-999.0,yes,yes,no,300234067975310,BD2GI,AOML,SKAGAFOSS,North
2021-10-08T16:00:02Z,2021,16,0,281.6667,281.6667,61.471,-8.326,1019.4,11.47,-999.0,yes,yes,no,300234067975310,BD2GI,AOML,SKAGAFOSS,North
2021-10-08T16:59:57Z,2021,17,0,281.7083,281.7083,61.463,-8.331,1019.3,11.46,-999.0,yes,yes,no,300234067975310,BD2GI,AOML,SKAGAFOSS,North
2021-10-08T18:00:00Z,2021,18,0,281.75,281.75,61.46,-8.339,1019.5,11.46,-999.0,yes,yes,no,300234067975310,BD2GI,AOML,SKAGAFOSS,North
2021-10-08T19:00:02Z,2021,19,0,281.7917,281.7917,61.463,-8.344,1019.4,11.46,-999.0,yes,yes,no,300234067975310,BD2GI,AOML,SKAGAFOSS,North
2021-10-08T19:59:57Z,2021,20,0,281.8333,281.8333,61.47,-8.345,1019.3,11.46,-999.0,yes,yes,no,300234067975310,BD2GI,AOML,SKAGAFOSS,North
2021-10-08T21:00:00Z,2021,21,0,281.875,281.875,61.479,-8.335,1019.1,11.46,-999.0,yes,yes,no,300234067975310,BD2GI,AOML,SKAGAFOSS,North
2021-10-08T22:00:02Z,2021,22,0,281.9167,281.9167,61.488,-8.313,1018.8,11.46,-999.0,yes,yes,no,300234067975310,BD2GI,AOML,SKAGAFOSS,North
2021-10-08T22:59:57Z,2021,23,0,281.9583,281.9583,61.495,-8.279,1018.9,11.46,-999.0,yes,yes,no,300234067975310,BD2GI,AOML,SKAGAFOSS,North
2021-10-09T00:00:00Z,2021,0,0,282.0,282.0,61.494,-8.24,1018.6,11.45,-999.0,yes,yes,no,300234067975310,BD2GI,AOML,SKAGAFOSS,North
2021-10-09T01:00:02Z,2021,1,0,282.0417,282.0417,61.483,-8.202,1018.3,11.45,-999.0,yes,yes,no,300234067975310,BD2GI,AOML,SKAGAFOSS,North
2021-10-09T01:59:57Z,2021,2,0,282.0833,282.0833,61.466,-8.179,1018.1,11.45,-999.0,yes,yes,no,300234067975310,BD2GI,AOML,SKAGAFOSS,North
2021-10-09T03:00:00Z,2021,3,0,282.125,282.125,61.446,-8.171,1017.7,11.45,-999.0,yes,yes,no,300234067975310,BD2GI,AOML,SKAGAFOSS,North
2021-10-09T04:00:02Z,2021,4,0,282.1667,282.1667,61.43,-8.174,1017.4,11.46,-999.0,yes,yes,no,300234067975310,BD2GI,AOML,SKAGAFOSS,North
2021-10-09T04:59:57Z,2021,5,0,282.2083,282.2083,61.423,-8.181,1017.2,11.45,-999.0,yes,yes,no,300234067975310,BD2GI,AOML,SKAGAFOSS,North
2021-10-09T06:00:00Z,2021,6,0,282.25,282.25,61.423,-8.185,1017.0,11.45,-999.0,yes,yes,no,300234067975310,BD2GI,AOML,SKAGAFOSS,North
2021-10-09T07:00:02Z,2021,7,0,282.2917,282.2917,61.427,-8.183,1016.9,11.45,-999.0,yes,yes,no,300234067975310,BD2GI,AOML,SKAGAFOSS,North
2021-10-09T07:59:57Z,2021,8,0,282.3333,282.3333,61.434,-8.173,1016.9,11.45,-999.0,yes,yes,no,300234067975310,BD2GI,AOML,SKAGAFOSS,North
2021-10-09T09:00:00Z,2021,9,0,282.375,282.375,61.439,-8.157,1017.2,11.45,-999.0,yes,yes,no,300234067975310,BD2GI,AOML,SKAGAFOSS,North
2021-10-09T10:00:02Z,2021,10,0,282.4167,282.4167,61.442,-8.143,1017.3,11.46,-999.0,yes,yes,no,300234067975310,BD2GI,AOML,SKAGAFOSS,North
2021-10-09T12:00:00Z,2021,12,0,282.5,282.5,61.443,-8.086,1017.9,11.46,-999.0,yes,yes,no,300234067975310,BD2GI,AOML,SKAGAFOSS,North
2021-10-09T13:00:02Z,2021,13,0,282.5417,282.5417,61.435,-8.058,1017.8,11.48,-999.0,yes,yes,no,300234067975310,BD2GI,AOML,SKAGAFOSS,North
2021-10-09T13:59:57Z,2021,14,0,282.5833,282.5833,61.423,-8.04,1018.0,11.48,-999.0,yes,yes,no,300234067975310,BD2GI,AOML,SKAGAFOSS,North
2021-10-09T15:00:00Z,2021,15,0,282.625,282.625,61.411,-8.027,1017.8,11.49,-999.0,yes,yes,no,300234067975310,BD2GI,AOML,SKAGAFOSS,North
2021-10-09T16:00:02Z,2021,16,0,282.6667,282.6667,61.401,-8.018,1017.9,11.48,-999.0,yes,yes,no,300234067975310,BD2GI,AOML,SKAGAFOSS,North
2021-10-09T16:59:57Z,2021,17,0,282.7083,282.7083,61.395,-8.014,1017.9,11.47,-999.0,yes,yes,no,300234067975310,BD2GI,AOML,SKAGAFOSS,North
2021-10-09T18:00:00Z,2021,18,0,282.75,282.75,61.395,-8.007,1018.0,11.46,-999.0,yes,yes,no,300234067975310,BD2GI,AOML,SKAGAFOSS,North
2021-10-09T19:00:02Z,2021,19,0,282.7917,282.7917,61.397,-7.997,1017.9,11.45,-999.0,yes,yes,no,300234067975310,BD2GI,AOML,SKAGAFOSS,North
2021-10-09T19:59:57Z,2021,20,0,282.8333,282.8333,61.4,-7.983,1017.7,11.44,-999.0,yes,yes,no,300234067975310,BD2GI,AOML,SKAGAFOSS,North
2021-10-09T21:00:00Z,2021,21,0,282.875,282.875,61.404,-7.96,1017.4,11.43,-999.0,yes,yes,no,300234067975310,BD2GI,AOML,SKAGAFOSS,North
2021-10-09T22:00:02Z,2021,22,0,282.9167,282.9167,61.403,-7.934,1017.1,11.43,-999.0,yes,yes,no,300234067975310,BD2GI,AOML,SKAGAFOSS,North
2021-10-09T22:59:57Z,2021,23,0,282.9583,282.9583,61.401,-7.9,1016.8,11.42,-999.0,yes,yes,no,300234067975310,BD2GI,AOML,SKAGAFOSS,North
2021-10-10T00:00:00Z,2021,0,0,283.0,283.0,61.397,-7.866,1016.5,11.41,-999.0,yes,yes,no,300234067975310,BD2GI,AOML,SKAGAFOSS,North
2021-10-10T01:00:02Z,2021,1,0,283.0417,283.0417,61.39,-7.832,1016.3,11.4,-999.0,yes,yes,no,300234067975310,BD2GI,AOML,SKAGAFOSS,North
2021-10-10T01:59:57Z,2021,2,0,283.0833,283.0833,61.378,-7.802,1015.8,11.39,-999.0,yes,yes,no,300234067975310,BD2GI,AOML,SKAGAFOSS,North
2021-10-10T03:00:00Z,2021,3,0,283.125,283.125,61.365,-7.776,1015.5,11.38,-999.0,yes,yes,no,300234067975310,BD2GI,AOML,SKAGAFOSS,North
2021-10-10T04:00:02Z,2021,4,0,283.1667,283.1667,61.347,-7.754,1014.8,11.37,-999.0,yes,yes,no,300234067975310,BD2GI,AOML,SKAGAFOSS,North
2021-10-10T04:59:57Z,2021,5,0,283.2083,283.2083,61.335,-7.742,1014.2,11.36,-999.0,yes,yes,no,300234067975310,BD2GI,AOML,SKAGAFOSS,North
2021-10-10T06:00:00Z,2021,6,0,283.25,283.25,61.326,-7.732,1013.5,11.35,-999.0,yes,yes,no,300234067975310,BD2GI,AOML,SKAGAFOSS,North
2021-10-10T07:00:02Z,2021,7,0,283.2917,283.2917,61.322,-7.724,1013.4,11.33,-999.0,yes,yes,no,300234067975310,BD2GI,AOML,SKAGAFOSS,North
2021-10-10T07:59:57Z,2021,8,0,283.3333,283.3333,61.319,-7.712,1013.2,11.32,-999.0,yes,yes,no,300234067975310,BD2GI,AOML,SKAGAFOSS,North
2021-10-10T09:00:00Z,2021,9,0,283.375,283.375,61.315,-7.697,1013.0,11.31,-999.0,yes,yes,no,300234067975310,BD2GI,AOML,SKAGAFOSS,North
2021-10-10T10:00:02Z,2021,10,0,283.4167,283.4167,61.309,-7.685,1013.5,11.29,-999.0,yes,yes,no,300234067975310,BD2GI,AOML,SKAGAFOSS,North
2021-10-10T12:00:00Z,2021,12,0,283.5,283.5,61.291,-7.66,1015.4,11.27,-999.0,yes,yes,no,300234067975310,BD2GI,AOML,SKAGAFOSS,North
2021-10-10T13:00:02Z,2021,13,0,283.5417,283.5417,61.279,-7.645,1016.6,11.27,-999.0,yes,yes,no,300234067975310,BD2GI,AOML,SKAGAFOSS,North
2021-10-10T13:59:57Z,2021,14,0,283.5833,283.5833,61.265,-7.63,1017.9,11.24,-999.0,yes,yes,no,300234067975310,BD2GI,AOML,SKAGAFOSS,North
2021-10-10T15:00:00Z,2021,15,0,283.625,283.625,61.251,-7.617,1019.3,11.22,-999.0,yes,yes,no,300234067975310,BD2GI,AOML,SKAGAFOSS,North
2021-10-10T16:00:02Z,2021,16,0,283.6667,283.6667,61.238,-7.609,1020.2,11.2,-999.0,yes,yes,no,300234067975310,BD2GI,AOML,SKAGAFOSS,North
2021-10-10T16:59:57Z,2021,17,0,283.7083,283.7083,61.227,-7.603,1021.6,11.19,-999.0,yes,yes,no,300234067975310,BD2GI,AOML,SKAGAFOSS,North
2021-10-10T18:00:00Z,2021,18,0,283.75,283.75,61.216,-7.604,1022.6,11.19,-999.0,yes,yes,no,300234067975310,BD2GI,AOML,SKAGAFOSS,North
2021-10-10T19:00:02Z,2021,19,0,283.7917,283.7917,61.205,-7.607,1023.3,11.18,-999.0,yes,yes,no,300234067975310,BD2GI,AOML,SKAGAFOSS,North
2021-10-10T19:59:57Z,2021,20,0,283.8333,283.8333,61.197,-7.606,1023.8,11.18,-999.0,yes,yes,no,300234067975310,BD2GI,AOML,SKAGAFOSS,North
2021-10-10T21:00:00Z,2021,21,0,283.875,283.875,61.191,-7.598,1024.1,11.18,-999.0,yes,yes,no,300234067975310,BD2GI,AOML,SKAGAFOSS,North
2021-10-10T22:00:02Z,2021,22,0,283.9167,283.9167,61.185,-7.592,1024.3,11.17,-999.0,yes,yes,no,300234067975310,BD2GI,AOML,SKAGAFOSS,North
2021-10-10T22:59:57Z,2021,23,0,283.9583,283.9583,61.179,-7.586,1024.1,11.16,-999.0,yes,yes,no,300234067975310,BD2GI,AOML,SKAGAFOSS,North
2021-10-11T00:00:00Z,2021,0,0,284.0,284.0,61.172,-7.579,1023.8,11.16,-999.0,yes,yes,no,300234067975310,BD2GI,AOML,SKAGAFOSS,North
2021-10-11T01:00:02Z,2021,1,0,284.0417,284.0417,61.162,-7.573,1023.5,11.15,-999.0,yes,yes,no,300234067975310,BD2GI,AOML,SKAGAFOSS,North
2021-10-11T01:59:57Z,2021,2,0,284.0833,284.0833,61.15,-7.569,1023.1,11.15,-999.0,yes,yes,no,300234067975310,BD2GI,AOML,SKAGAFOSS,North
2021-10-11T03:00:00Z,2021,3,0,284.125,284.125,61.14,-7.564,1023.0,11.14,-999.0,yes,yes,no,300234067975310,BD2GI,AOML,SKAGAFOSS,North
2021-10-11T04:00:02Z,2021,4,0,284.1667,284.1667,61.128,-7.561,1022.9,11.14,-999.0,yes,yes,no,300234067975310,BD2GI,AOML,SKAGAFOSS,North
2021-10-11T04:59:57Z,2021,5,0,284.2083,284.2083,61.116,-7.563,1022.8,11.12,-999.0,yes,yes,no,300234067975310,BD2GI,AOML,SKAGAFOSS,North
2021-10-11T06:00:00Z,2021,6,0,284.25,284.25,61.104,-7.569,1022.9,11.11,-999.0,yes,yes,no,300234067975310,BD2GI,AOML,SKAGAFOSS,North
2021-10-11T07:00:02Z,2021,7,0,284.2917,284.2917,61.093,-7.571,1023.3,11.09,-999.0,yes,yes,no,300234067975310,BD2GI,AOML,SKAGAFOSS,North
2021-10-11T07:59:57Z,2021,8,0,284.3333,284.3333,61.082,-7.571,1023.6,11.09,-999.0,yes,yes,no,300234067975310,BD2GI,AOML,SKAGAFOSS,North
2021-10-11T09:00:00Z,2021,9,0,284.375,284.375,61.07,-7.574,1024.0,11.09,-999.0,yes,yes,no,300234067975310,BD2GI,AOML,SKAGAFOSS,North
2021-10-11T10:00:02Z,2021,10,0,284.4167,284.4167,61.057,-7.577,1024.3,11.08,-999.0,yes,yes,no,300234067975310,BD2GI,AOML,SKAGAFOSS,North
2021-10-11T12:00:00Z,2021,12,0,284.5,284.5,61.03,-7.614,1024.5,11.11,-999.0,yes,yes,no,300234067975310,BD2GI,AOML,SKAGAFOSS,North
2021-10-11T13:00:02Z,2021,13,0,284.5417,284.5417,61.024,-7.631,1024.6,11.14,-999.0,yes,yes,no,300234067975310,BD2GI,AOML,SKAGAFOSS,North
2021-10-11T13:59:57Z,2021,14,0,284.5833,284.5833,61.022,-7.643,1024.6,11.11,-999.0,yes,yes,no,300234067975310,BD2GI,AOML,SKAGAFOSS,North
2021-10-11T15:00:00Z,2021,15,0,284.625,284.625,61.019,-7.652,1024.7,11.11,-999.0,yes,yes,no,300234067975310,BD2GI,AOML,SKAGAFOSS,North
2021-10-11T16:00:02Z,2021,16,0,284.6667,284.6667,61.016,-7.659,1024.9,11.09,-999.0,yes,yes,no,300234067975310,BD2GI,AOML,SKAGAFOSS,North
2021-10-11T16:59:57Z,2021,17,0,284.7083,284.7083,61.012,-7.664,1025.2,11.06,-999.0,yes,yes,no,300234067975310,BD2GI,AOML,SKAGAFOSS,North
2021-10-11T18:00:00Z,2021,18,0,284.75,284.75,61.004,-7.664,1025.6,11.07,-999.0,yes,yes,no,300234067975310,BD2GI,AOML,SKAGAFOSS,North
2021-10-11T19:00:02Z,2021,19,0,284.7917,284.7917,60.996,-7.665,1025.6,11.06,-999.0,yes,yes,no,300234067975310,BD2GI,AOML,SKAGAFOSS,North
2021-10-11T19:59:57Z,2021,20,0,284.8333,284.8333,60.987,-7.668,1026.0,11.05,-999.0,yes,yes,no,300234067975310,BD2GI,AOML,SKAGAFOSS,North
2021-10-11T21:00:00Z,2021,21,0,284.875,284.875,60.979,-7.673,1026.3,11.06,-999.0,yes,yes,no,300234067975310,BD2GI,AOML,SKAGAFOSS,North
2021-10-11T22:00:02Z,2021,22,0,284.9167,284.9167,60.971,-7.685,1026.5,11.05,-999.0,yes,yes,no,300234067975310,BD2GI,AOML,SKAGAFOSS,North
2021-10-11T22:59:57Z,2021,23,0,284.9583,284.9583,60.961,-7.695,1026.7,11.06,-999.0,yes,yes,no,300234067975310,BD2GI,AOML,SKAGAFOSS,North
2021-10-12T00:00:00Z,2021,0,0,285.0,285.0,60.951,-7.7,1026.8,11.03,-999.0,yes,yes,no,300234067975310,BD2GI,AOML,SKAGAFOSS,North
2021-10-12T01:00:02Z,2021,1,0,285.0417,285.0417,60.943,-7.703,1027.0,11.05,-999.0,yes,yes,no,300234067975310,BD2GI,AOML,SKAGAFOSS,North
2021-10-12T01:59:57Z,2021,2,0,285.0833,285.0833,60.937,-7.717,1026.8,11.01,-999.0,yes,yes,no,300234067975310,BD2GI,AOML,SKAGAFOSS,North
2021-10-12T03:00:00Z,2021,3,0,285.125,285.125,60.934,-7.732,1026.4,11.02,-999.0,yes,yes,no,300234067975310,BD2GI,AOML,SKAGAFOSS,North
2021-10-12T04:00:02Z,2021,4,0,285.1667,285.1667,60.931,-7.748,1026.2,11.01,-999.0,yes,yes,no,300234067975310,BD2GI,AOML,SKAGAFOSS,North
2021-10-12T04:59:57Z,2021,5,0,285.2083,285.2083,60.926,-7.756,1026.0,11.01,-999.0,yes,yes,no,300234067975310,BD2GI,AOML,SKAGAFOSS,North
2021-10-12T06:00:00Z,2021,6,0,285.25,285.25,60.921,-7.762,1026.0,11.02,-999.0,yes,yes,no,300234067975310,BD2GI,AOML,SKAGAFOSS,North
2021-10-12T07:00:02Z,2021,7,0,285.2917,285.2917,60.914,-7.765,1025.8,11.02,-999.0,yes,yes,no,300234067975310,BD2GI,AOML,SKAGAFOSS,North
2021-10-12T07:59:57Z,2021,8,0,285.3333,285.3333,60.904,-7.769,1025.6,11.01,-999.0,yes,yes,no,300234067975310,BD2GI,AOML,SKAGAFOSS,North
2021-10-12T09:00:00Z,2021,9,0,285.375,285.375,60.896,-7.777,1025.4,11.02,-999.0,yes,yes,no,300234067975310,BD2GI,AOML,SKAGAFOSS,North
2021-10-12T10:00:02Z,2021,10,0,285.4167,285.4167,60.889,-7.782,1025.0,11.02,-999.0,yes,yes,no,300234067975310,BD2GI,AOML,SKAGAFOSS,North
2021-10-12T10:59:57Z,2021,11,0,285.4583,285.4583,60.881,-7.789,1024.5,11.03,-999.0,yes,yes,no,300234067975310,BD2GI,AOML,SKAGAFOSS,North
2021-10-12T12:00:00Z,2021,12,0,285.5,285.5,60.874,-7.793,1023.8,11.03,-999.0,yes,yes,no,300234067975310,BD2GI,AOML,SKAGAFOSS,North
2021-10-12T13:00:02Z,2021,13,0,285.5417,285.5417,60.869,-7.804,1023.0,11.03,-999.0,yes,yes,no,300234067975310,BD2GI,AOML,SKAGAFOSS,North
2021-10-12T13:59:57Z,2021,14,0,285.5833,285.5833,60.864,-7.816,1022.1,11.04,-999.0,yes,yes,no,300234067975310,BD2GI,AOML,SKAGAFOSS,North
2021-10-12T15:00:00Z,2021,15,0,285.625,285.625,60.858,-7.826,1021.6,11.05,-999.0,yes,yes,no,300234067975310,BD2GI,AOML,SKAGAFOSS,North
2021-10-12T16:00:02Z,2021,16,0,285.6667,285.6667,60.855,-7.835,1021.0,11.05,-999.0,yes,yes,no,300234067975310,BD2GI,AOML,SKAGAFOSS,North
2021-10-12T16:59:57Z,2021,17,0,285.7083,285.7083,60.854,-7.84,1020.4,11.06,-999.0,yes,yes,no,300234067975310,BD2GI,AOML,SKAGAFOSS,North
2021-10-12T18:00:00Z,2021,18,0,285.75,285.75,60.849,-7.838,1020.0,11.06,-999.0,yes,yes,no,300234067975310,BD2GI,AOML,SKAGAFOSS,North
2021-10-12T19:00:02Z,2021,19,0,285.7917,285.7917,60.837,-7.832,1019.6,11.07,-999.0,yes,yes,no,300234067975310,BD2GI,AOML,SKAGAFOSS,North
2021-10-12T19:59:57Z,2021,20,0,285.8333,285.8333,60.824,-7.827,1019.3,11.07,-999.0,yes,yes,no,300234067975310,BD2GI,AOML,SKAGAFOSS,North
2021-10-12T21:00:00Z,2021,21,0,285.875,285.875,60.806,-7.831,1019.0,11.07,-999.0,yes,yes,no,300234067975310,BD2GI,AOML,SKAGAFOSS,North
2021-10-12T22:00:02Z,2021,22,0,285.9167,285.9167,60.789,-7.844,1018.2,11.07,-999.0,yes,yes,no,300234067975310,BD2GI,AOML,SKAGAFOSS,North
2021-10-12T22:59:57Z,2021,23,0,285.9583,285.9583,60.778,-7.862,1017.8,11.07,-999.0,yes,yes,no,300234067975310,BD2GI,AOML,SKAGAFOSS,North
2021-10-13T00:00:00Z,2021,0,0,286.0,286.0,60.771,-7.878,1017.2,11.07,-999.0,yes,yes,no,300234067975310,BD2GI,AOML,SKAGAFOSS,North
2021-10-13T01:00:02Z,2021,1,0,286.0417,286.0417,60.773,-7.891,1016.9,11.07,-999.0,yes,yes,no,300234067975310,BD2GI,AOML,SKAGAFOSS,North
2021-10-13T01:59:57Z,2021,2,0,286.0833,286.0833,60.778,-7.891,1016.6,11.07,-999.0,yes,yes,no,300234067975310,BD2GI,AOML,SKAGAFOSS,North
2021-10-13T03:00:00Z,2021,3,0,286.125,286.125,60.781,-7.878,1016.3,11.07,-999.0,yes,yes,no,300234067975310,BD2GI,AOML,SKAGAFOSS,North